Content
SEND FEEDBACK

Daily
Averages
Monthly
Summary
United States of America

AGAT, GUAM


Home > North America > United States > Guam
Elevation: 110 meters     Latitude: 13 33N     Longitude: 144 50E

WEATHER
 
SELECT A DAY
Number of Records: 208,807;   Date Range: 1/1/95 - 7/7/14
 
SHARE

PRINT THIS DATA

[ ← Previous Day ]
WEATHER ALMANAC - 16 MARCH, 2013
[ Next Day → ]
[ °F ]   °C
Weather ElementAverageHighLow
Temperature28.1 °C31.1 °C (10:54 am)25.6 °C (4:54 am)
Dewpoint21.8 °C23 °C (12:09 pm)21 °C (11:28 am)
Humidity69 %81 % (6:54 am)55 % (10:54 am)
Barometer1013.2 hPa1014.6 hPa (8:54 am)1011.2 hPa (3:54 pm)
Wind Speed17.1 km/h25.9 km/h (11:54 am)
Wind Gust37 km/h (10:54 am)
Weather ElementAverage
Visibility15.8 km
Wind DirectionENE (57.6 °)

Weather ElementTotal
Precipitation---
Cooling Degree Days10.1 (Base 18.3)
Growing Degree Days18.4 (Base 10)
Averaged from 29 records on 16 March, 2013
WEATHER CONDITIONS BREAKOUT
WIND DIRECTION BREAKOUT
WEATHER BY HOUR - 16 MARCH, 2013
[ °F ]   °C
Local TimeTemperatureDewpointHumidityBarometerVisibilityWind DirectionWind SpeedGust SpeedPrecipitationEventsConditions
1:54 AM26.7 °C22.2 °C76 %1013.2 hPa16.1 kmENE (60°)9.3 km/hMostly Cloudy
2:54 AM26.7 °C21.7 °C74 %1012.9 hPa16.1 kmENE (60°)11.1 km/hOvercast
3:54 AM26.1 °C21.7 °C77 %1012.2 hPa16.1 kmENE (70°)7.4 km/hScattered Clouds
4:54 AM25.6 °C21.7 °C79 %1012.2 hPa16.1 kmENE (60°)9.3 km/hClear
5:54 AM26.1 °C21.7 °C77 %1012.9 hPa16.1 kmENE (60°)13 km/hClear
6:54 AM25.6 °C22.2 °C81 %1013.5 hPa16.1 kmNE (50°)9.3 km/hScattered Clouds
7:54 AM26.7 °C22.2 °C76 %1014.2 hPa16.1 kmNE (50°)13 km/hClear
8:54 AM28.3 °C21.7 °C67 %1014.6 hPa16.1 kmNE (50°)22.2 km/hPartly Cloudy
9:54 AM28.9 °C21.1 °C63 %1014.6 hPa16.1 kmENE (60°)18.5 km/hScattered Clouds
10:54 AM31.1 °C21.1 °C55 %1014.2 hPa16.1 kmNE (50°)22.2 km/h37 km/hScattered Clouds
11:28 AM29 °C21 °C62 %1014.6 hPa16.1 kmNE (40°)18.5 km/hMostly Cloudy
11:54 AM26.7 °C22.8 °C79 %1013.9 hPa14.5 kmNE (40°)25.9 km/h0 mmRainLight Rain
12:09 PM27 °C23 °C79 %1014.2 hPa9.7 kmNE (40°)16.7 km/h0 mmRainLight Rain
12:35 PM29 °C22 °C66 %1013.9 hPa16.1 kmNE (50°)24.1 km/h0 mmOvercast
12:54 PM28.9 °C21.7 °C65 %1012.9 hPa16.1 kmENE (60°)24.1 km/h0 mmOvercast
1:01 PM29 °C22 °C66 %1013.5 hPa16.1 kmENE (60°)24.1 km/hOvercast
1:13 PM29 °C22 °C66 %1013.5 hPa16.1 kmNE (40°)22.2 km/hOvercast
1:45 PM31 °C22 °C58 %1012.9 hPa16.1 kmEast (90°)25.9 km/hMostly Cloudy
1:54 PM30.6 °C21.1 °C57 %1011.9 hPa16.1 kmENE (70°)25.9 km/h35.2 km/hScattered Clouds
2:54 PM30.6 °C21.7 °C59 %1011.5 hPa16.1 kmNE (50°)25.9 km/hMostly Cloudy
3:54 PM30.6 °C21.1 °C57 %1011.2 hPa16.1 kmNE (50°)24.1 km/hMostly Cloudy
4:54 PM29.4 °C21.1 °C61 %1011.5 hPa16.1 kmENE (70°)18.5 km/hScattered Clouds
5:54 PM28.3 °C21.1 °C65 %1012.2 hPa16.1 kmENE (70°)20.4 km/hScattered Clouds
6:54 PM27.8 °C21.7 °C69 %1012.2 hPa16.1 kmENE (60°)13 km/hPartly Cloudy
7:54 PM27.2 °C22.2 °C74 %1012.9 hPa16.1 kmNE (50°)7.4 km/hPartly Cloudy
8:54 PM27.2 °C21.7 °C72 %1012.9 hPa16.1 kmENE (70°)11.1 km/hPartly Cloudy
9:54 PM27.2 °C21.7 °C72 %1013.2 hPa16.1 kmENE (60°)11.1 km/hPartly Cloudy
10:54 PM26.7 °C21.7 °C74 %1013.2 hPa16.1 kmENE (60°)11.1 km/hPartly Cloudy
11:54 PM26.7 °C21.7 °C74 %1013.2 hPa16.1 kmENE (70°)11.1 km/hPartly Cloudy
Hourly data recorded from PGUM, located 0 kilometers away from Agat, Guam







STORIES FROM OUR PARTNERS